Tracking 29969 objects as of 6-Dec-2024
HD Live streaming from Space Station
objects crossing your sky now

IRIDIUM 33 DEB

Track IRIDIUM 33 DEB now!
10-day predictions


NORAD ID: 34350
Int'l Code: 1997-051ES
Perigee: 738.7 km
Apogee: 767.2 km
Inclination: 86.3 °
Period: 99.7 minutes
Semi major axis: 7123 km
RCS: 0.064 m2 (small)
Launch date: September 14, 1997
Source: United States (US)
Launch site: TYURATAM MISSILE AND SPACE COMPLEX (TTMTR)

Note: This is SATELLITE DEBRIS
Your satellite tracking list
Your tracking list is empty




NASA's NSSDC Master Catalog

Two Line Element Set (TLE):
1 34350U 97051ES  24341.50130091  .00002953  00000-0  85950-3 0  9999
2 34350  86.3297 163.6707 0020006 292.4625 130.4651 14.43852423829331
Source of the keplerian elements: AFSPC